Location: Crescent
(42.8242°N, 73.7329°W)
Time: 23:42:15
(UTC+00:00)

Transit 2A Rocket - Visible Passes

Search period start: 16 February 2026 00:00
Search period end: 26 February 2026 00:00
Orbit: 582 x 901 km, 66.7° (Epoch: 16 February)

Date Brightness Start Highest point End Pass type
(mag) Time Alt. Az. Time Alt. Az. Time Alt. Az.
16 Feb 7.7 23:37:57 10° WNW 23:40:52 14° NNW 23:43:47 10° N visible
17 Feb 7.5 22:50:20 10° W 22:54:38 20° NW 22:58:53 10° N visible
19 Feb 7.7 23:04:13 10° NW 23:06:34 12° NNW 23:08:53 10° N visible
